Time,TemperatureF,DewpointF,PressureIn,WindDirection,WindDirectionDegrees,WindSpeedMPH,WindSpeedGustMPH,Humidity,HourlyPrecipIn,Conditions,Clouds,dailyrainin,SoftwareType,DateUTC
2013-03-07 00:00:00,31.0,18.0,-100.00,North,-999,-999.0,-999.0,58,-99.99,,,-99.99,,2013-03-07 07:00:00,
2013-03-07 00:53:00,31.0,18.0,-100.00,North,-999,-999.0,-999.0,58,-99.99,,,-99.99,,2013-03-07 07:53:00,
2013-03-07 01:00:00,28.0,24.0,-100.00,North,-999,-999.0,-999.0,82,-99.99,,,0.00,,2013-03-07 08:00:00,
2013-03-07 01:54:00,28.0,24.0,-100.00,North,-999,-999.0,-999.0,82,-99.99,,,0.00,,2013-03-07 08:54:00,
2013-03-07 02:00:00,28.0,24.0,-100.00,North,-999,-999.0,-999.0,84,-99.99,,,-99.99,,2013-03-07 09:00:00,
2013-03-07 02:53:00,28.0,24.0,-100.00,North,-999,-999.0,-999.0,84,-99.99,,,-99.99,,2013-03-07 09:53:00,
2013-03-07 03:00:00,28.0,23.0,-100.00,North,-999,-999.0,-999.0,80,-99.99,,,-99.99,,2013-03-07 10:00:00,
2013-03-07 03:53:00,28.0,23.0,-100.00,North,-999,-999.0,-999.0,80,-99.99,,,-99.99,,2013-03-07 10:53:00,
2013-03-07 04:00:00,28.0,21.0,-100.00,North,-999,-999.0,-999.0,75,-99.99,,,0.00,,2013-03-07 11:00:00,
2013-03-07 04:54:00,28.0,21.0,-100.00,North,-999,-999.0,-999.0,75,-99.99,,,0.00,,2013-03-07 11:54:00,
2013-03-07 05:00:00,28.0,19.0,-100.00,North,-999,-999.0,-999.0,68,-99.99,,,-99.99,,2013-03-07 12:00:00,
2013-03-07 05:53:00,28.0,19.0,-100.00,North,-999,-999.0,-999.0,68,-99.99,,,-99.99,,2013-03-07 12:53:00,
2013-03-07 06:00:00,25.0,15.0,-100.00,North,-999,-999.0,-999.0,66,-99.99,,,-99.99,,2013-03-07 13:00:00,
2013-03-07 06:53:00,25.0,15.0,-100.00,North,-999,-999.0,-999.0,66,-99.99,,,-99.99,,2013-03-07 13:53:00,
2013-03-07 07:00:00,24.0,12.0,-100.00,North,-999,-999.0,-999.0,61,-99.99,,,0.00,,2013-03-07 14:00:00,
2013-03-07 07:53:00,24.0,12.0,-100.00,North,-999,-999.0,-999.0,61,-99.99,,,0.00,,2013-03-07 14:53:00,
2013-03-07 08:00:00,27.0,12.0,-100.00,North,-999,-999.0,-999.0,52,-99.99,,,-99.99,,2013-03-07 15:00:00,
2013-03-07 08:53:00,27.0,12.0,-100.00,North,-999,-999.0,-999.0,52,-99.99,,,-99.99,,2013-03-07 15:53:00,
2013-03-07 09:00:00,33.0,16.0,-100.00,North,-999,-999.0,-999.0,48,-99.99,,,-99.99,,2013-03-07 16:00:00,
2013-03-07 09:53:00,33.0,16.0,-100.00,North,-999,-999.0,-999.0,48,-99.99,,,-99.99,,2013-03-07 16:53:00,
2013-03-07 10:54:00,35.0,6.0,-100.00,North,-999,-999.0,-999.0,29,-99.99,,,0.00,,2013-03-07 17:54:00,
2013-03-07 11:00:00,31.0,6.0,-100.00,North,-999,-999.0,-999.0,34,-99.99,,,-99.99,,2013-03-07 18:00:00,
2013-03-07 11:52:00,31.0,6.0,-100.00,North,-999,-999.0,-999.0,34,-99.99,,,-99.99,,2013-03-07 18:52:00,
2013-03-07 12:00:00,31.0,7.0,-100.00,North,-999,-999.0,-999.0,36,-99.99,,,-99.99,,2013-03-07 19:00:00,
2013-03-07 12:53:00,31.0,7.0,-100.00,North,-999,-999.0,-999.0,36,-99.99,,,-99.99,,2013-03-07 19:53:00,
2013-03-07 13:00:00,32.0,7.0,-100.00,North,-999,-999.0,-999.0,34,-99.99,,,0.00,,2013-03-07 20:00:00,
2013-03-07 13:54:00,32.0,7.0,-100.00,North,-999,-999.0,-999.0,34,-99.99,,,0.00,,2013-03-07 20:54:00,
2013-03-07 14:00:00,30.0,6.0,-100.00,North,-999,-999.0,-999.0,36,-99.99,,,-99.99,,2013-03-07 21:00:00,
2013-03-07 14:53:00,30.0,6.0,-100.00,North,-999,-999.0,-999.0,36,-99.99,,,-99.99,,2013-03-07 21:53:00,
2013-03-07 15:00:00,29.0,9.0,-100.00,North,-999,-999.0,-999.0,44,-99.99,,,-99.99,,2013-03-07 22:00:00,
2013-03-07 15:54:00,29.0,9.0,-100.00,North,-999,-999.0,-999.0,44,-99.99,,,-99.99,,2013-03-07 22:54:00,
2013-03-07 16:00:00,26.0,10.0,-100.00,North,-999,-999.0,-999.0,49,-99.99,,,0.00,,2013-03-07 23:00:00,
2013-03-07 16:53:00,26.0,10.0,-100.00,North,-999,-999.0,-999.0,49,-99.99,,,0.00,,2013-03-07 23:53:00,
2013-03-07 17:00:00,24.0,10.0,-100.00,North,-999,-999.0,-999.0,55,-99.99,,,-99.99,,2013-03-08 00:00:00,
2013-03-07 17:53:00,24.0,10.0,-100.00,North,-999,-999.0,-999.0,55,-99.99,,,-99.99,,2013-03-08 00:53:00,
2013-03-07 18:00:00,23.0,11.0,-100.00,North,-999,-999.0,-999.0,59,-99.99,,,-99.99,,2013-03-08 01:00:00,
2013-03-07 18:52:00,23.0,11.0,-100.00,North,-999,-999.0,-999.0,59,-99.99,,,-99.99,,2013-03-08 01:52:00,
2013-03-07 19:00:00,22.0,12.0,-100.00,North,-999,-999.0,-999.0,63,-99.99,,,-99.99,,2013-03-08 02:00:00,
2013-03-07 19:53:00,22.0,12.0,-100.00,North,-999,-999.0,-999.0,63,-99.99,,,-99.99,,2013-03-08 02:53:00,
2013-03-07 20:00:00,23.0,14.0,-100.00,North,-999,-999.0,-999.0,68,-99.99,,,-99.99,,2013-03-08 03:00:00,
2013-03-07 20:52:00,23.0,14.0,-100.00,North,-999,-999.0,-999.0,68,-99.99,,,-99.99,,2013-03-08 03:52:00,
2013-03-07 21:00:00,22.0,15.0,-100.00,North,-999,-999.0,-999.0,74,-99.99,,,-99.99,,2013-03-08 04:00:00,
2013-03-07 21:52:00,22.0,15.0,-100.00,North,-999,-999.0,-999.0,74,-99.99,,,-99.99,,2013-03-08 04:52:00,
2013-03-07 22:00:00,21.0,15.0,-100.00,North,-999,-999.0,-999.0,78,-99.99,,,-99.99,,2013-03-08 05:00:00,
2013-03-07 22:52:00,21.0,15.0,-100.00,North,-999,-999.0,-999.0,78,-99.99,,,-99.99,,2013-03-08 05:52:00,
2013-03-07 23:00:00,20.0,15.0,-100.00,North,-999,-999.0,-999.0,79,-99.99,,,-99.99,,2013-03-08 06:00:00,
2013-03-07 23:52:00,20.0,15.0,-100.00,North,-999,-999.0,-999.0,79,-99.99,,,-99.99,,2013-03-08 06:52:00,